#timestamp,LO_Frequency,Hit,StdDev 
1508414415.1,286046996.6,N
1508414416.0,286046996.6,N
1508414435.8,286047000.7,N
1508414455.6,286047000.7,N
1508414475.5,286046998.3,N
1508414495.3,286046998.1,N
1508414515.1,286046999.3,N
1508414535.8,286046998.9,N
1508414555.7,286046996.9,N
1508414575.5,286046999.4,N
1508414595.3,286046998.5,N
1508414615.2,286047002.8,N
1508414635.9,286046998.9,N
1508414655.7,286046995.9,N
1508414675.6,286046994.8,N
1508414695.4,286046993.3,Y
1508414715.2,286047002.6,P
1508414735.1,286046999.1,N
1508414736.0,286046999.1,N
1508414755.8,286046995.3,N
1508414775.6,286046999.6,N
1508414795.5,286047001.1,N
1508414815.3,286047000.9,N
1508414835.1,286046998.8,N
1508414855.9,286047001.0,N
1508414875.7,286047000.4,N
1508414895.5,286047000.1,N
1508414915.3,286047001.4,N
1508414935.2,286047005.4,Y
1508414955.0,286047001.6,P
1508414955.9,286047001.6,N
1508414975.8,286047004.0,P
1508414995.6,286047005.8,Y
1508415015.4,286047004.0,P
1508415035.3,286047003.1,N
1508415055.1,286047003.8,P
1508415056.0,286047003.8,Y
1508415075.8,286046997.3,P
1508415095.7,286046996.8,N
1508415115.5,286046997.5,N
1508415135.3,286046997.5,N
1508415155.2,286046995.7,N
1508415175.9,286046996.4,N
1508415195.7,286046995.5,N
1508415215.5,286046995.9,N
1508415235.4,286046993.6,N
1508415255.2,286046996.2,N
1508415275.0,286046996.2,N
1508415275.9,286046996.2,N
1508415295.8,286046999.2,N
1508415315.6,286047001.2,N
1508415335.4,286046996.8,N
1508415355.3,286046996.7,N
1508415375.1,286046999.2,N
1508415395.8,286046995.3,N
1508415415.7,286046997.4,N
1508415435.5,286046996.0,N
1508415455.3,286046997.9,N
1508415475.2,286046997.1,N
1508415495.9,286046994.5,N
1508415515.7,286046994.4,N
1508415535.6,286046995.9,N
1508415555.4,286046997.2,N
1508415575.2,286046999.5,N
1508415595.0,286046999.2,N
1508415595.9,286046999.2,N
1508415615.8,286046998.5,N
1508415635.6,286046999.2,N
1508415655.4,286047001.1,N
1508415675.3,286046999.8,N
1508415695.1,286046999.6,N
1508415715.8,286046992.7,Y
1508415735.7,286046992.0,P
1508415755.5,286046998.0,N
1508415775.3,286046993.2,N
1508415795.2,286046988.8,Y
1508415815.0,286046998.0,P
1508415815.9,286046998.0,N
1508415835.7,286047000.9,N
1508415855.6,286046999.8,N
1508415875.4,286047001.6,N
1508415895.2,286047002.5,N
1508415915.1,286047000.6,N
1508415916.0,286047000.6,N
1508415935.8,286046998.4,N
1508415955.6,286047001.9,N
1508415975.5,286047001.9,N
1508415995.3,286047001.4,N
1508416015.1,286046999.2,N
1508416035.9,286046996.9,N
1508416055.7,286047002.3,N
1508416075.5,286046998.2,N
1508416095.4,286046999.1,N
1508416115.2,286046996.6,N
1508416135.0,286046996.7,N
1508416135.9,286046996.7,N
1508416155.8,286046996.2,N
1508416175.6,286047000.8,N
1508416195.4,286047001.4,N
1508416215.2,286046999.9,N
1508416235.1,286046999.7,N
1508416236.0,286046999.7,N
1508416255.8,286046999.9,N
1508416275.6,286046998.8,N
1508416295.5,286046999.2,N
1508416315.3,286047001.6,N
1508416335.1,286047003.4,N
1508416355.9,286047001.8,N
1508416375.7,286047000.9,N
1508416395.5,286046998.8,N
1508416415.4,286047001.1,N
1508416435.2,286046997.2,N
1508416455.0,286047000.0,N
1508416455.9,286047000.0,N
1508416475.8,286047000.6,N
1508416495.6,286046996.6,N
1508416515.4,286046999.5,N
1508416535.3,286046998.9,N
1508416555.1,286046997.3,N
1508416556.0,286046997.3,N
1508416575.8,286047001.2,N
1508416595.7,286047001.0,N
1508416615.5,286046999.8,N
1508416635.3,286046998.7,N
1508416655.1,286046999.3,N
1508416675.9,286046997.3,N
1508416695.7,286046995.7,N
1508416715.5,286046997.3,N
1508416735.4,286046995.0,N
1508416755.2,286046994.1,Y
1508416775.0,286046995.4,P
1508416776.0,286046995.4,N
1508416795.8,286046995.3,N
1508416815.6,286047001.0,N
1508416835.4,286047002.1,N
1508416855.3,286047000.7,N
1508416875.1,286047002.2,N
1508416895.8,286046999.3,N
1508416915.7,286046997.8,N
1508416935.5,286046995.9,N
1508416955.3,286046996.7,N
1508416975.2,286046992.1,Y
1508416995.0,286046996.4,P
1508416995.9,286046996.4,P
1508417015.7,286046993.9,P
1508417035.6,286046995.1,Y
1508417055.4,286047002.7,P
1508417075.2,286046996.7,N
1508417095.1,286047002.1,N
1508417096.0,286047002.1,N
1508417115.8,286047005.3,N
1508417135.6,286047001.6,N
1508417155.5,286047003.7,N
1508417175.3,286047003.0,N
1508417195.1,286047005.5,N
1508417215.9,286047004.6,N
1508417235.7,286047004.6,N
1508417255.5,286047003.5,N
1508417275.4,286047001.6,N
1508417295.2,286047003.6,N
1508417315.0,286047000.3,N
1508417315.9,286047000.3,N
1508417335.8,286047002.2,N
1508417355.6,286047007.2,N
1508417375.4,286047003.0,N
1508417395.3,286047004.9,N
1508417415.1,286047008.4,Y
1508417416.0,286047008.4,P
1508417435.8,286047002.8,N
1508417455.7,286046999.1,N
1508417475.5,286046999.3,N
1508417495.3,286046998.1,N
1508417515.2,286047002.1,N
1508417535.9,286047000.1,N
1508417555.7,286046998.2,N
1508417575.5,286046998.1,N
1508417595.4,286046998.5,N
1508417615.2,286047002.4,N
1508417635.0,286047002.8,N
1508417635.9,286047002.8,N
1508417655.8,286046999.7,N
1508417675.6,286047003.9,N
1508417695.4,286047002.4,N
1508417715.3,286046999.9,N
1508417735.1,286046999.6,N
1508417736.0,286046999.6,N
1508417755.8,286046996.8,N
1508417775.7,286046998.2,N
1508417795.5,286046999.4,N
1508417815.3,286046999.7,N
1508417835.2,286047005.2,N
1508417855.9,286047002.4,N
1508417875.7,286046998.3,N
1508417895.6,286047001.6,N
1508417915.4,286047005.7,N
1508417935.2,286047003.1,N
1508417955.0,286047002.7,N
1508417955.9,286047002.7,N
1508417975.8,286047000.2,N
1508417995.6,286046997.0,N
